CAPE
2212 2433 2669 2953 3312 3397 2940 2366 2242 2220 2328 2334 2188 2159 2111 2145 2312 2581 2505 2635 2764 2918 2760 2425 3113 2697 2506 2451 2595 1749 1298 1132 1156 1177 631 598 940 865 1106 1381 1539 1643 1527
1265 1248 1115 1314 1948 2038 1697 1737 2000 2075 1937 1967 2198 2315 2267 2029 1904 1723 1725 2629 2630 2541 2532 2701 2496 943 494 1010 2125 1944 1345 1128 1229 2079 1400 794 957 915 1172 2100 1586 1588 1495
475 455 492 463 559 516 571 849 1279 1560 1510 1429 1753 2793 2628 2676 2475 2263 2076 1904 2210 1898 2148 2859 1505 1162 1869 2075 1879 1210 1391 1431 1662 1222 1102 792 798 853 1094 1493 1550 1877 1916
443 265 224 392 690 825 1031 1148 1294 1409 1477 1482 1571 1704 1739 1709 1788 2026 2297 2371 2282 2329 2566 2509 2404 2554 2888 3003 2153 1618 523 805 1556 1772 785 763 1135 972 1236 1220 1324 2145 1705
588 545 653 779 874 968 1108 1395 1574 1801 1569 1448 1376 1430 1491 1413 1131 988 1267 1341 1638 2091 1757 2298 1504 1664 1232 1718 1348 1420 1572 1396 1975 1611 779 871 1402 1050 927 1201 1210 1202 1598
914 811 624 445 465 569 857 1072 1382 1453 1693 1856 1264 1404 1555 1363 706 647 890 1084 1024 1140 1193 784 1063 970 1153 1123 883 865 1772 2468 2100 1012 805 1010 1139 862 1026 1206 1378 881 979
280 140 167 264 313 401 627 700 879 1156 1436 1521 1406 1437 1463 1428 850 743 693 1251 1133 1018 1077 1105 1340 1489 1351 1628 1431 1011 863 524 393 1324 1348 1203 1616 1483 1266 678 1218 791 1086
59 113 166 213 308 458 647 804 869 854 1021 1257 1474 1578 1438 1394 968 896 804 1314 1353 1343 1407 1304 1388 1375 1276 1476 1981 1722 1598 1270 873 724 960 1103 1485 1283 1237 1306 1155 1067 1137
91 86 99 141 310 362 445 545 787 925 1007 1099 1310 1556 1693 1489 544 405 395 1238 1267 1459 1378 1763 1729 1544 1117 952 1474 1546 1407 1254 711 750 663 606 455 337 483 666 772 823 160
50 47 55 35 101 56 265 81 145 359 291 350 372 543 631 941 460 361 124 495 703 765 676 817 890 983 931 827 1656 1788 1520 1281 1117 916 734 199 168 222 158 287 623 785 349
25 18 17 15 29 33 26 65 114 492 346 505 630 665 1059 361 644 88 163 112 567 520 606 547 712 479 524 502 526 1850 1286 1173 1037 991 351 365 435 511 188 151 262 147 1
22 20 19 25 10 14 53 143 267 168 269 659 405 37 89 50 3 59 60 103 103 155 208 374 531 259 491 514 337 307 464 738 1096 841 682 284 161 116 54 22 8 22 0
16 19 23 16 12 35 40 60 90 354 150 32 0 0 1 0 4 20 15 45 49 30 35 49 56 110 272 93 43 26 159 599 851 682 535 190 73 93 140 76 27 0 0
7 10 12 0 2 32 21 30 32 65 1 2 1 0 6 11 1 7 11 17 32 25 50 22 11 20 67 52 44 272 111 874 535 565 257 515 281 303 66 101 67 16 0
0 0 0 0 19 22 16 8 1 13 2 3 1 1 8 0 19 31 39 37 24 12 32 73 59 119 117 72 247 185 160 554 347 247 331 53 65 207 82 185 42 8 17
0 0 0 0 12 0 0 0 1 2 3 3 2 0 2 16 2 19 38 56 55 48 31 82 99 215 252 290 478 70 134 138 222 482 528 143 59 98 111 272 232 58 2
0 0 0 1 0 0 0 0 0 0 0 1 0 1 0 0 11 13 33 37 45 47 278 417 303 280 315 433 157 154 68 114 171 623 908 535 198 95 23 794 397 406 101
0 0 0 0 0 0 0 13 0 0 0 0 0 0 2 0 2 6 30 76 51 77 88 257 538 446 306 249 279 90 148 155 219 151 503 869 679 141 102 854 809 1047 741
0 0 0 0 0 0 8 17 0 2 0 3 1 0 0 0 1 2 1 26 43 41 15 116 124 155 623 293 181 82 91 145 193 315 577 714 248 60 98 502 543 82 262
0 0 0 0 0 0 1 2 11 5 0 0 0 0 0 1 2 1 0 0 6 0 6 37 1 37 73 101 92 143 117 292 406 398 181 324 171 93 44 109 604 686 322
2 1 0 2 5 2 0 0 0 0 0 0 0 0 0 4 6 5 2 0 0 6 0 1 19 34 6 76 84 58 36 128 270 324 48 196 31 124 68 157 650 1001 766
9 11 10 8 5 3 0 0 0 0 0 0 0 0 0 0 0 0 0 0 2 0 0 2 15 10 3 32 22 57 63 58 61 50 76 151 187 245 196 416 940 676 488
20 23 26 25 18 7 13 13 0 0 0 0 0 0 0 0 0 0 0 0 0 0 0 0 0 14 8 4 2 21 46 12 45 45 14 88 114 347 857 894 684 208 303
29 38 36 42 35 35 36 35 29 1 4 6 5 4 0 0 0 0 0 0 0 0 0 0 0 0 8 13 2 20 4 1 3 5 34 10 150 686 1075 722 216 381 174
17 33 18 18 28 21 19 21 31 45 37 27 21 19 15 15 7 0 0 0 0 0 0 0 0 0 0 6 11 4 0 0 2 14 26 31 49 114 512 830 692 940 824
21 44 43 39 13 26 42 20 17 18 19 31 35 29 32 30 0 0 0 0 0 0 0 0 0 0 0 0 0 0 5 2 0 0 3 16 71 29 71 493 156 707 821
CIN
-100 -63 -30 -17 -8 -5 -13 -30 -30 -26 -11 -9 -16 -14 -13 -11 -2 -0 -0 -0 -0 -0 -0 -3 -0 -28 -18 -2 -0 -0 -0 -0 -0 -1 -11 -6 -1 -3 -0 -0 -0 -0 -1
-167 -140 -125 -57 -4 -0 -6 -1 -1 -4 -6 -2 -0 -0 -3 -11 -3 -2 -0 -0 -0 -0 -0 -0 -0 -74 -148 -60 -0 -0 -0 -14 -0 -0 -0 -0 -4 -0 -0 -0 -0 -0 -0
-210 -203 -183 -178 -115 -124 -85 -16 -9 -2 -2 -1 -0 -0 -0 -0 -0 -0 -0 -0 -0 -0 -0 -0 -22 -55 -13 -10 -5 -34 -9 -6 -0 -0 -0 -0 -8 -3 -0 -0 -0 -0 -0
-182 -258 -270 -160 -48 -11 -2 -1 -0 -0 -0 -0 -0 -0 -0 -0 -0 -0 -0 -0 -0 -0 -0 -0 -0 -0 -0 -0 -4 -28 -115 -35 -0 -0 -0 -0 -0 -1 -0 -1 -0 -0 -0
-103 -101 -61 -37 -19 -8 -1 -0 -0 -0 -0 -0 -0 -0 -0 -0 -0 -0 -0 -0 -0 -0 -7 -0 -4 -1 -11 -10 -11 -5 -10 -3 -0 -0 -0 -1 -0 -0 -0 -0 -0 -0 -0
-15 -30 -68 -110 -76 -41 -1 -0 -0 -0 -0 -0 -0 -0 -0 -0 -2 -24 -36 -0 -0 -0 -1 -26 -0 -10 -8 -35 -32 -39 -6 -0 -0 -0 -0 -0 -0 -0 -0 -0 -0 -0 -0
-179 -268 -222 -138 -94 -64 -10 -0 -0 -0 -0 -0 -0 -0 -0 -0 -6 -24 -28 -0 -0 -0 -0 -0 -1 -0 -3 -0 -0 -49 -39 -27 -58 -3 -0 -0 -0 -0 -0 -2 -0 -1 -1
-307 -234 -165 -124 -69 -21 -0 -0 -0 -0 -0 -0 -0 -0 -0 -0 -2 -2 -4 -0 -0 -0 -0 -0 -0 -0 -0 -1 -0 -0 -1 -3 -20 -23 -1 -0 -0 -0 -0 -0 -0 -0 -1
-231 -223 -188 -142 -51 -16 -4 -0 -0 -0 -0 -0 -0 -0 -0 -0 -31 -38 -17 -0 -0 -0 -0 -0 -0 -0 -1 -2 -0 -0 -0 -0 -4 -14 -3 -0 -1 -0 -4 -0 -0 -0 -4
-268 -212 -186 -183 -128 -169 -23 -134 -90 -4 -12 -7 -6 -0 -1 -0 -14 -21 -41 -0 -0 -0 -7 -8 -6 -4 -2 -3 -0 -0 -0 -0 -0 -0 -0 -13 -25 -9 -13 -7 -0 -0 -3
-0 -0 -0 -0 -0 -0 -0 -120 -77 -0 -3 -0 -0 -0 -0 -7 -4 -23 -8 -13 -0 -0 -0 -22 -26 -47 -29 -15 -6 -0 -1 -0 -2 -0 -5 -2 -3 -0 -18 -20 -12 -18 -0
-0 -0 -0 -0 -0 -0 -43 -40 -6 -46 -16 -0 -1 -16 -23 -3 -5 -1 -0 -0 -0 -9 -14 -15 -18 -39 -15 -7 -44 -45 -13 -0 -0 -0 -0 -5 -32 -37 -48 -58 -26 -31 -0
-0 -0 -0 -0 -0 -0 -0 -129 -95 -7 -68 -6 -0 -0 -0 -0 -0 -0 -0 -1 -2 -10 -9 -16 -14 -1 -0 -15 -24 -22 -39 -2 -0 -0 -1 -9 -42 -25 -19 -47 -0 -0 -0
-0 -0 -0 -0 -0 -0 -1 -0 -0 -0 -0 -0 -0 -0 -0 -0 -0 -1 -2 -6 -7 -9 -1 -3 -1 -26 -18 -41 -48 -25 -63 -0 -1 -0 -1 -1 -2 -1 -28 -30 -35 -16 -0
-0 -0 -0 -0 -0 -0 -12 -5 -0 -0 -0 -1 -0 -0 -0 -0 -0 -0 -18 -69 -31 -15 -5 -10 -30 -18 -30 -49 -14 -20 -32 -0 -0 -0 -0 -6 -18 -16 -23 -10 -38 -30 -0
-0 -0 -0 -0 -0 -0 -0 -0 -0 -4 -0 -1 -0 -0 -0 -2 -0 -0 -12 -35 -65 -54 -36 -17 -12 -9 -7 -8 -1 -22 -5 -2 -0 -0 -0 -5 -20 -6 -6 -5 -3 -13 -5
-0 -0 -0 -0 -0 -0 -0 -0 -0 -0 -0 -0 -0 -0 -0 -0 -9 -0 -4 -26 -26 -11 -0 -0 -0 -0 -2 -0 -0 -0 -1 -0 -0 -0 -0 -0 -1 -2 -0 -0 -0 -0 -1
-0 -0 -0 -0 -0 -0 -0 -0 -0 -0 -0 -0 -1 -0 -0 -0 -22 -5 -3 -0 -7 -2 -3 -0 -0 -0 -0 -0 -0 -0 -0 -0 -0 -52 -0 -0 -0 -4 -0 -0 -0 -0 -0
-0 -0 -0 -0 -0 -0 -0 -0 -0 -0 -0 -4 -0 -0 -0 -0 -0 -38 -0 -4 -0 -0 -0 -0 -0 -0 -0 -0 -0 -0 -0 -0 -1 -23 -0 -0 -0 -9 -0 -0 -0 -8 -2
-0 -0 -0 -0 -0 -0 -0 -0 -0 -0 -0 -0 -0 -0 -0 -0 -0 -0 -1 -0 -0 -0 -0 -0 -1 -1 -0 -0 -0 -0 -0 -1 -0 -0 -0 -0 -1 -18 -0 -2 -0 -0 -2
-0 -0 -0 -0 -0 -0 -0 -0 -0 -0 -0 -0 -0 -0 -0 -0 -1 -0 -0 -0 -0 -1 -0 -0 -0 -0 -0 -0 -0 -0 -0 -0 -0 -5 -1 -1 -0 -0 -1 -0 -0 -0 -0
-0 -0 -0 -0 -0 -0 -0 -0 -0 -0 -0 -0 -0 -0 -0 -0 -0 -0 -0 -0 -1 -0 -0 -3 -0 -0 -1 -0 -0 -0 -0 -0 -0 -0 -0 -0 -0 -0 -22 -9 -0 -0 -1
-0 -0 -0 -0 -0 -2 -0 -0 -0 -0 -0 -0 -0 -0 -0 -0 -0 -0 -0 -0 -0 -0 -0 -0 -0 -0 -2 -1 -0 -0 -0 -1 -0 -1 -2 -0 -0 -4 -0 -0 -1 -7 -5
-0 -0 -0 -0 -0 -0 -0 -0 -0 -2 -0 -0 -0 -0 -0 -0 -0 -0 -0 -0 -0 -0 -0 -0 -0 -0 -0 -0 -0 -0 -2 -0 -0 -0 -0 -0 -0 -0 -0 -0 -28 -12 -7
-0 -0 -1 -0 -0 -0 -0 -0 -0 -0 -0 -0 -0 -0 -0 -0 -0 -0 -0 -0 -0 -0 -0 -0 -0 -0 -0 -0 -0 -0 -0 -0 -0 -2 -0 -0 -10 -0 -0 -0 -2 -1 -0
-0 -0 -0 -1 -2 -3 -1 -0 -0 -0 -0 -0 -0 -0 -0 -0 -0 -0 -0 -0 -0 -0 -0 -0 -0 -0 -0 -0 -0 -0 -0 -0 -0 -0 -0 -4 -10 -1 -0 -0 -4 -2 -0
Wind_Speed
47 45 43 42 43 46 47 44 43 43 42 40 38 36 36 37 38 43 44 42 41 40 37 39 41 44 48 49 45 37 33 34 30 27 23 22 26 31 30 36 37 34 36
49 47 45 46 45 43 44 46 47 47 48 48 46 43 41 40 42 41 41 45 41 40 38 40 46 51 49 43 29 33 36 36 32 28 26 26 27 32 32 34 37 36 36
46 45 47 45 45 46 47 48 48 48 47 43 43 44 42 40 38 40 43 42 43 42 40 40 46 52 48 44 31 32 34 32 30 30 26 32 33 32 34 35 38 41 39
44 44 45 46 46 46 46 46 43 43 42 39 39 40 40 40 40 40 40 39 37 41 39 37 40 44 46 44 42 45 44 36 32 30 24 33 33 34 39 34 39 42 43
43 43 44 43 41 40 37 37 38 39 38 39 37 34 33 33 36 40 42 42 44 42 40 36 43 43 45 40 41 37 38 37 44 40 28 27 30 37 38 40 37 42 46
41 42 42 40 39 36 34 38 34 32 31 32 33 31 32 36 39 46 40 38 42 43 42 49 38 37 26 46 39 36 43 44 44 40 33 23 25 34 36 36 36 37 42
42 41 40 39 35 34 35 35 30 30 31 29 29 30 28 24 30 28 33 34 34 35 39 42 40 43 41 41 44 42 39 40 37 33 29 26 29 30 31 31 28 31 29
nan 39 38 36 33 34 34 31 31 32 27 27 24 21 19 20 22 19 19 20 25 25 28 30 32 35 39 40 43 41 40 37 32 32 26 27 33 30 34 28 28 31 35
nan nan nan 35 34 33 33 29 30 27 24 21 24 20 19 14 15 21 25 21 16 19 23 28 30 30 31 40 35 34 30 25 36 37 39 46 47 45 39 34 31 34 37
nan nan nan nan 32 nan 33 nan 30 27 26 25 21 21 19 12 14 22 22 26 27 27 22 24 27 23 26 35 29 27 24 24 32 40 40 42 39 38 34 26 28 28 31
nan nan nan nan nan nan nan nan 27 25 25 22 21 20 17 23 23 nan 21 24 28 28 23 24 26 29 29 35 29 24 26 32 39 40 43 41 40 30 26 24 24 25 nan
nan nan nan nan nan nan nan 27 27 24 21 18 19 nan nan nan nan nan nan 19 23 21 22 26 27 27 26 29 29 25 39 40 37 36 27 21 18 21 nan nan nan nan nan
nan nan nan nan nan nan nan nan nan 20 22 nan nan nan nan nan nan nan nan nan nan nan nan nan nan 28 25 nan nan nan 34 29 26 17 9 16 nan nan 18 nan nan nan nan
nan nan nan nan nan nan nan nan nan nan nan nan nan nan nan nan nan nan nan nan nan nan nan nan nan nan nan nan nan 17 15 17 18 16 18 16 15 13 nan 20 nan nan nan
nan nan nan nan nan nan nan nan nan nan nan nan nan nan nan nan nan nan nan nan nan nan nan nan nan 2 6 nan 13 13 15 16 14 17 17 nan nan 18 nan 17 nan nan nan
nan nan nan nan nan nan nan nan nan nan nan nan nan nan nan nan nan nan nan nan nan nan nan nan nan 3 4 6 10 nan 9 10 14 18 15 18 nan nan 18 18 21 nan nan
nan nan nan nan nan nan nan nan nan nan nan nan nan nan nan nan nan nan nan nan nan nan 1 1 3 5 7 9 13 12 nan 11 15 9 12 14 13 nan nan 9 11 15 15
nan nan nan nan nan nan nan nan nan nan nan nan nan nan nan nan nan nan nan nan nan nan nan 9 5 8 11 13 13 nan 18 12 14 11 10 13 16 11 8 6 9 11 13
nan nan nan nan nan nan nan nan nan nan nan nan nan nan nan nan nan nan nan nan nan nan nan 14 13 15 9 9 8 nan nan 17 19 16 17 14 15 nan nan 9 11 nan 14
nan nan nan nan nan nan nan nan nan nan nan nan nan nan nan nan nan nan nan nan nan nan nan nan nan nan nan 20 nan 9 7 6 9 14 17 22 13 nan nan 14 14 11 11
nan nan nan nan nan nan nan nan nan nan nan nan nan nan nan nan nan nan nan nan nan nan nan nan nan nan nan nan nan nan nan 13 15 17 nan 19 nan 16 nan 15 13 11 11
nan nan nan nan nan nan nan nan nan nan nan nan nan nan nan nan nan nan nan nan nan nan nan nan nan nan nan nan nan nan nan nan nan nan nan 20 15 11 13 23 17 12 11
nan nan nan nan nan nan nan nan nan nan nan nan nan nan nan nan nan nan nan nan nan nan nan nan nan nan nan nan nan nan nan nan nan nan nan nan 15 10 12 13 12 13 17
nan nan nan nan nan nan nan nan nan nan nan nan nan nan nan nan nan nan nan nan nan nan nan nan nan nan nan nan nan nan nan nan nan nan nan nan 20 17 17 19 19 13 21
nan nan nan nan nan nan nan nan nan nan nan nan nan nan nan nan nan nan nan nan nan nan nan nan nan nan nan nan nan nan nan nan nan nan nan nan nan 31 23 20 17 18 17
nan nan nan nan nan nan nan nan nan nan nan nan nan nan nan nan nan nan nan nan nan nan nan nan nan nan nan nan nan nan nan nan nan nan nan nan nan nan nan 23 22 19 20
Wind_Direction
301 299 298 300 301 302 301 300 300 300 299 298 295 292 290 287 289 290 293 294 297 294 292 289 287 283 272 278 260 250 255 259 265 269 278 276 266 265 258 259 261 264 261
304 303 301 300 302 305 306 305 304 303 301 300 298 296 293 287 282 280 282 284 285 288 288 286 283 275 288 301 270 239 256 258 259 268 280 281 277 269 266 261 260 251 256
297 298 298 299 303 304 303 302 300 298 297 296 294 292 287 283 277 278 277 274 277 279 282 278 278 279 283 288 272 266 261 263 264 267 275 277 277 271 270 266 261 260 252
299 301 300 302 304 307 305 304 305 303 302 299 296 294 291 284 278 274 272 269 271 270 272 276 276 275 280 282 275 264 261 279 254 262 275 273 279 279 278 271 262 257 253
301 304 304 303 303 304 306 308 308 305 303 301 300 298 294 289 285 271 268 260 257 258 260 255 258 264 268 269 270 273 265 277 280 282 283 269 277 276 282 276 269 256 249
306 304 302 304 306 310 312 313 308 311 315 311 309 302 301 298 284 287 280 261 253 251 255 258 256 262 276 271 279 278 277 278 279 281 286 286 274 278 276 275 272 262 247
303 304 305 308 310 312 313 315 313 314 315 313 310 306 306 305 296 283 277 262 256 254 254 256 257 266 276 274 286 286 277 273 273 281 287 287 274 280 275 272 272 264 255
nan 305 308 310 312 314 311 308 313 319 315 315 315 310 312 311 309 295 283 267 269 262 262 261 259 259 260 263 274 276 281 283 292 285 287 275 275 274 271 268 261 254 253
nan nan nan 312 310 311 313 308 313 316 316 319 316 309 306 300 284 274 274 270 272 263 263 265 261 254 261 270 269 273 280 284 280 281 273 268 269 268 257 254 257 257 253
nan nan nan nan 314 nan 310 nan 320 322 321 316 316 314 312 294 312 309 291 274 282 282 268 255 253 264 258 268 270 271 275 276 272 273 277 272 268 271 249 247 246 257 256
nan nan nan nan nan nan nan nan 323 322 329 332 322 318 312 297 307 nan 288 274 273 274 272 260 258 253 266 275 275 273 272 267 278 278 271 266 264 243 240 251 251 255 nan
nan nan nan nan nan nan nan 326 324 332 337 327 318 nan nan nan nan nan nan 329 261 260 262 260 256 253 265 273 275 267 261 273 272 271 258 222 225 235 nan nan nan nan nan
nan nan nan nan nan nan nan nan nan 324 315 nan nan nan nan nan nan nan nan nan nan nan nan nan nan 251 254 nan nan nan 271 266 257 239 251 231 nan nan 250 nan nan nan nan
nan nan nan nan nan nan nan nan nan nan nan nan nan nan nan nan nan nan nan nan nan nan nan nan nan nan nan nan nan 259 242 267 254 210 253 233 238 248 nan 279 nan nan nan
nan nan nan nan nan nan nan nan nan nan nan nan nan nan nan nan nan nan nan nan nan nan nan nan nan 255 248 nan 253 245 241 265 231 248 239 nan nan 258 nan 286 nan nan nan
nan nan nan nan nan nan nan nan nan nan nan nan nan nan nan nan nan nan nan nan nan nan nan nan nan 273 256 276 276 nan 245 247 235 249 256 241 nan nan 256 267 281 nan nan
nan nan nan nan nan nan nan nan nan nan nan nan nan nan nan nan nan nan nan nan nan nan 332 271 310 254 246 266 275 269 nan 246 250 220 231 230 241 nan nan 248 264 286 312
nan nan nan nan nan nan nan nan nan nan nan nan nan nan nan nan nan nan nan nan nan nan nan 202 240 251 257 277 270 nan 231 234 224 228 234 238 243 252 252 266 294 287 288
nan nan nan nan nan nan nan nan nan nan nan nan nan nan nan nan nan nan nan nan nan nan nan 210 213 208 228 273 254 nan nan 262 227 209 225 233 247 nan nan 252 278 nan 266
nan nan nan nan nan nan nan nan nan nan nan nan nan nan nan nan nan nan nan nan nan nan nan nan nan nan nan 202 nan 237 227 268 209 213 219 231 237 nan nan 260 244 251 258
nan nan nan nan nan nan nan nan nan nan nan nan nan nan nan nan nan nan nan nan nan nan nan nan nan nan nan nan nan nan nan 230 233 219 nan 254 nan 276 nan 256 255 228 244
nan nan nan nan nan nan nan nan nan nan nan nan nan nan nan nan nan nan nan nan nan nan nan nan nan nan nan nan nan nan nan nan nan nan nan 244 246 244 231 227 229 231 251
nan nan nan nan nan nan nan nan nan nan nan nan nan nan nan nan nan nan nan nan nan nan nan nan nan nan nan nan nan nan nan nan nan nan nan nan 254 232 237 236 234 221 246
nan nan nan nan nan nan nan nan nan nan nan nan nan nan nan nan nan nan nan nan nan nan nan nan nan nan nan nan nan nan nan nan nan nan nan nan 214 234 235 244 236 211 239
nan nan nan nan nan nan nan nan nan nan nan nan nan nan nan nan nan nan nan nan nan nan nan nan nan nan nan nan nan nan nan nan nan nan nan nan nan 208 219 226 241 230 230
nan nan nan nan nan nan nan nan nan nan nan nan nan nan nan nan nan nan nan nan nan nan nan nan nan nan nan nan nan nan nan nan nan nan nan nan nan nan nan 216 221 227 254